Munster, IN

7:08 PM CST on February 24, 2017 (GMT -0600)
Lansing Municipal

Weather History for KIGQ - October, 2012

Change the Weather History Date:

Tuesday, October 2, 2012

  Actual Average (KGYY) Record (KGYY)
Temperature  
Mean Temperature 62 °F -  
Max Temperature 68 °F 70 °F 90 °F (1971)
Min Temperature 55 °F 49 °F 32 °F (1966)
Degree Days  
Heating Degree Days 4    
Growing Degree Days 12 (Base 50)    
Moisture  
Dew Point 50 °F    
Average Humidity 64    
Maximum Humidity 80    
Minimum Humidity 39    
Precipitation  
Precipitation 0.00 in - - ()
Sea Level Pressure  
Sea Level Pressure 29.85 in    
Wind  
Wind Speed 7 mph (NE)    
Max Wind Speed 20 mph    
Max Gust Speed 26 mph    
Visibility 10 miles    
Events Rain    
Averages and records for this station are not official NWS values.
T = Trace of Precipitation, MM = Missing Value Source: NWS Daily Summary

Daily Weather History Graph

Daily Weather History Graph

Search for Another Location

Airport or City:

Trip Planner

Search our weather history database for the weather conditions in past years. The results will help you decide how hot, cold, wet, or windy it might be!

Date:

Astronomy

Oct. 02, 2012 Rise Set
Actual Time 6:48 AM CDT 6:29 PM CDT
Civil Twilight 6:20 AM CDT 6:56 PM CDT
Nautical Twilight 5:48 AM CDT 7:29 PM CDT
Astronomical Twilight 5:16 AM CDT 8:01 PM CDT
Moon 7:39 PM CDT (10/2) 9:17 AM CDT (10/2)
Length of Visible Light 12h 36m
Length of Day
11h 40m
Waning Gibbous, 94% of the Moon is Illuminated
Oct 2
Waning Gibbous
Oct 8
Last Quarter
Oct 15
New
Oct 21
First Quarter
Oct 29
Full

Hourly Weather History & Observations

Time (CDT) Temp. Dew Point Humidity Pressure Visibility Wind Dir Wind Speed Gust Speed Precip Events Conditions
12:15 AM 59.9 °F 50.2 °F 70% 29.82 in 10.0 mi NNE 4.6 mph - N/A   Clear
12:35 AM 60.1 °F 50.5 °F 71% 29.81 in 10.0 mi NE 5.8 mph - N/A   Clear
12:55 AM 60.3 °F 51.1 °F 72% 29.81 in 10.0 mi NE 5.8 mph - N/A   Clear
1:15 AM 59.9 °F 50.5 °F 71% 29.81 in 10.0 mi NE 5.8 mph - N/A   Clear
1:35 AM 59.9 °F 50.2 °F 70% 29.81 in 10.0 mi NE 4.6 mph - N/A   Clear
1:55 AM 59.0 °F 50.0 °F 72% 29.81 in 10.0 mi ENE 4.6 mph - N/A   Clear
2:15 AM 59.0 °F 50.0 °F 72% 29.81 in 10.0 mi East 3.5 mph - N/A   Clear
2:35 AM 59.0 °F 49.3 °F 70% 29.80 in 10.0 mi NE 3.5 mph - N/A   Clear
2:55 AM 59.0 °F 48.4 °F 68% 29.80 in 10.0 mi Calm Calm - N/A   Clear
3:15 AM 57.6 °F 48.2 °F 71% 29.80 in 10.0 mi Calm Calm - N/A   Clear
3:35 AM 58.1 °F 48.2 °F 70% 29.81 in 10.0 mi Calm Calm - N/A   Clear
3:55 AM 58.1 °F 47.7 °F 68% 29.81 in 10.0 mi NE 3.5 mph - N/A   Clear
4:15 AM 58.3 °F 47.3 °F 67% 29.82 in 10.0 mi NE 4.6 mph - N/A   Clear
4:35 AM 58.5 °F 47.3 °F 66% 29.81 in 10.0 mi NE 5.8 mph - N/A   Clear
4:55 AM 58.5 °F 47.3 °F 66% 29.81 in 10.0 mi NE 5.8 mph - N/A   Clear
5:15 AM 59.0 °F 48.2 °F 67% 29.82 in 10.0 mi NE 3.5 mph - N/A   Clear
5:35 AM 59.0 °F 48.2 °F 67% 29.83 in 10.0 mi ENE 3.5 mph - N/A   Clear
5:55 AM 56.5 °F 47.7 °F 72% 29.83 in 10.0 mi Calm Calm - N/A   Clear
6:15 AM 56.5 °F 47.8 °F 73% 29.84 in 10.0 mi East 3.5 mph - N/A   Clear
6:35 AM 55.4 °F 48.2 °F 77% 29.84 in 10.0 mi East 5.8 mph - N/A   Clear
6:55 AM 55.4 °F 48.2 °F 77% 29.84 in 10.0 mi East 4.6 mph - N/A   Clear
7:15 AM 56.3 °F 47.8 °F 73% 29.84 in 10.0 mi ENE 5.8 mph - N/A   Clear
7:35 AM 57.7 °F 48.6 °F 71% 29.85 in 10.0 mi ENE 3.5 mph - N/A   Clear
7:55 AM 58.8 °F 49.3 °F 71% 29.85 in 10.0 mi East 4.6 mph - N/A   Clear
8:15 AM 60.1 °F 50.2 °F 70% 29.86 in 10.0 mi Calm Calm - N/A   Clear
8:35 AM 61.7 °F 50.4 °F 66% 29.86 in 10.0 mi NE 9.2 mph - N/A   Clear
8:55 AM 62.6 °F 48.7 °F 60% 29.86 in 10.0 mi NE 8.1 mph - N/A   Clear
9:15 AM 63.3 °F 48.2 °F 58% 29.86 in 10.0 mi ENE 9.2 mph - N/A   Clear
9:35 AM 63.5 °F 49.3 °F 60% 29.86 in 10.0 mi NNE 11.5 mph 16.1 mph N/A   Clear
9:55 AM 63.9 °F 48.2 °F 57% 29.86 in 10.0 mi ENE 12.7 mph - N/A   Clear
10:15 AM 64.6 °F 48.6 °F 56% 29.86 in 10.0 mi NE 11.5 mph 16.1 mph N/A   Clear
10:35 AM 64.4 °F 48.2 °F 56% 29.86 in 10.0 mi NE 13.8 mph 20.7 mph N/A   Clear
10:55 AM 66.2 °F 48.2 °F 52% 29.86 in 10.0 mi NE 11.5 mph - N/A   Clear
11:15 AM 65.5 °F 47.1 °F 51% 29.86 in 10.0 mi NE 12.7 mph 23.0 mph N/A   Clear
11:35 AM 66.9 °F 47.7 °F 50% 29.86 in 10.0 mi NE 10.4 mph 18.4 mph N/A   Clear
11:55 AM 66.0 °F 44.8 °F 46% 29.86 in 10.0 mi ENE 11.5 mph 21.9 mph N/A   Clear
12:15 PM 66.4 °F 43.7 °F 44% 29.86 in 10.0 mi NE 5.8 mph 21.9 mph N/A   Clear
12:35 PM 67.1 °F 42.6 °F 41% 29.86 in 10.0 mi NE 17.3 mph 23.0 mph N/A   Clear
12:55 PM 67.1 °F 41.5 °F 39% 29.85 in 10.0 mi NE 15.0 mph 23.0 mph N/A   Clear
1:15 PM 66.7 °F 41.9 °F 40% 29.84 in 10.0 mi NE 19.6 mph 26.5 mph N/A   Clear
1:35 PM 68.7 °F 44.8 °F 42% 29.84 in 10.0 mi NE 13.8 mph 19.6 mph N/A   Clear
1:55 PM 67.3 °F 46.4 °F 47% 29.84 in 10.0 mi NE 16.1 mph 23.0 mph N/A   Clear
2:15 PM 67.1 °F 47.5 °F 49% 29.83 in 10.0 mi NNE 17.3 mph 23.0 mph N/A   Clear
2:35 PM 65.8 °F 47.3 °F 51% 29.84 in 10.0 mi NE 13.8 mph 21.9 mph N/A   Clear
2:55 PM 66.9 °F 48.4 °F 51% 29.84 in 10.0 mi NNE 13.8 mph 21.9 mph N/A   Scattered Clouds
3:15 PM 67.3 °F 49.1 °F 52% 29.84 in 10.0 mi North 12.7 mph 18.4 mph N/A   Scattered Clouds
3:35 PM 65.8 °F 49.6 °F 56% 29.84 in 10.0 mi NNE 12.7 mph 17.3 mph N/A   Mostly Cloudy
3:55 PM 65.8 °F 50.5 °F 58% 29.84 in 10.0 mi NNE 11.5 mph 19.6 mph N/A   Overcast
4:15 PM 64.9 °F 49.6 °F 58% 29.84 in 10.0 mi NNE 15.0 mph 19.6 mph N/A   Overcast
4:35 PM 64.4 °F 50.0 °F 59% 29.83 in 10.0 mi NNE 11.5 mph - N/A   Overcast
4:55 PM 65.3 °F 49.3 °F 56% 29.84 in 10.0 mi North 11.5 mph 16.1 mph N/A   Overcast
5:15 PM 64.4 °F 48.4 °F 56% 29.84 in 10.0 mi NNE 10.4 mph 18.4 mph N/A   Overcast
5:35 PM 64.6 °F 47.8 °F 55% 29.84 in 10.0 mi NNE 9.2 mph - N/A   Overcast
5:55 PM 64.2 °F 49.1 °F 58% 29.85 in 10.0 mi NNE 9.2 mph - N/A   Overcast
6:15 PM 63.9 °F 49.1 °F 59% 29.85 in 10.0 mi NNE 6.9 mph - N/A   Overcast
6:35 PM 64.0 °F 49.5 °F 59% 29.86 in 10.0 mi NNE 6.9 mph - N/A   Overcast
6:55 PM 63.9 °F 50.0 °F 61% 29.86 in 10.0 mi NE 10.4 mph - N/A   Overcast
7:15 PM 63.7 °F 51.1 °F 64% 29.86 in 10.0 mi NE 12.7 mph - N/A   Overcast
7:35 PM 63.5 °F 52.7 °F 68% 29.87 in 10.0 mi NE 9.2 mph - N/A   Overcast
7:55 PM 63.3 °F 53.4 °F 70% 29.88 in 10.0 mi NE 8.1 mph - N/A   Overcast
8:15 PM 63.0 °F 53.8 °F 72% 29.88 in 10.0 mi NE 8.1 mph - N/A   Overcast
8:35 PM 62.8 °F 54.9 °F 75% 29.89 in 10.0 mi NE 6.9 mph 17.3 mph N/A   Overcast
8:55 PM 62.8 °F 54.9 °F 75% 29.89 in 10.0 mi NE 6.9 mph - N/A   Overcast
9:15 PM 62.6 °F 55.2 °F 77% 29.90 in 10.0 mi NE 6.9 mph - N/A   Overcast
9:35 PM 62.6 °F 55.0 °F 76% 29.90 in 10.0 mi NE 5.8 mph - N/A   Overcast
9:55 PM 62.6 °F 55.6 °F 78% 29.90 in 10.0 mi ENE 6.9 mph - N/A   Overcast
10:15 PM 62.6 °F 56.1 °F 79% 29.89 in 10.0 mi NNE 4.6 mph - N/A   Overcast
10:35 PM 62.6 °F 56.3 °F 80% 29.90 in 10.0 mi NE 5.8 mph - N/A   Overcast
10:55 PM 62.8 °F 56.3 °F 79% 29.90 in 10.0 mi NE 8.1 mph - N/A   Overcast
11:15 PM 63.0 °F 55.8 °F 77% 29.90 in 10.0 mi NE 5.8 mph - N/A   Overcast
11:35 PM 62.8 °F 55.9 °F 78% 29.90 in 10.0 mi NE 4.6 mph - N/A Rain Light Rain
11:55 PM 62.4 °F 56.3 °F 80% 29.89 in 10.0 mi ENE 5.8 mph - N/A   Overcast